This demonstration page uses our WeatherBlox Daily Observations layout. Learn more.

41.55636, -103.73856

Hourly Observations for March 23, 2019

Temp ( °F °C ) Dew Point ( °F °C ) Humidity (%) Winds ( mph kmh ) Pressure ( in mb ) Visibility ( mi km ) Precip ( " mm )
12:21 am 00:21 Cloudy with Light Rain 43 6 N/A N/A ESE 14 22 29.94 1014 7 11.265408 0.001 0.001
12:43 am 00:43 Cloudy with Haze 43 6 N/A N/A ESE 14 22 29.94 1014 6 9.656064 0.001 0.001
12:53 am 00:53 Cloudy with Haze 43 6 N/A N/A ESE 14 22 29.91 1013 5 8.04672 0.001 0.001
1:19 am 01:19 Cloudy with Haze 43 6 N/A N/A ESE 12 19 29.94 1014 4 6.437376 0 0
1:53 am 01:53 Cloudy with Mist and Fog 43 6 N/A N/A ESE 12 19 29.91 1013 3 4.828032 0 0
2:10 am 02:10 Cloudy with Mist and Fog 43 6 N/A N/A SE 9 15 29.94 1014 3 4.828032 0 0
2:21 am 02:21 Cloudy with Mist and Fog 41 5 N/A N/A ESE 9 15 29.97 1015 3 4.828032 0 0
2:53 am 02:53 Cloudy with Light Rain 42 5.6 42 5.6 100 100 SE 8 13 29.88 1012 3 4.828032 0.01 0.254
3:07 am 03:07 Cloudy with Light Rain 42 5.6 42 5.6 100 100 SE 9 15 29.94 1014 2.5 4.02336 0.001 0.001
3:15 am 03:15 Cloudy with Light Rain 42 5.6 42 5.6 100 100 SE 8 13 29.94 1014 3 4.828032 0.01 0.254
3:27 am 03:27 Cloudy with Light Rain 43 6 N/A N/A SSE 10 17 29.94 1014 4 6.437376 0.03 0.762
3:53 am 03:53 Cloudy with Light Rain 41 5 N/A N/A SE 8 13 29.88 1012 4 6.437376 0.06 1.524
8:36 am 08:36 Cloudy 39 4 N/A N/A ESE 6 9 29.97 1015 10 16.09344 0 0
9:25 am 09:25 Cloudy 39 4 N/A N/A ESE 3 6 29.97 1015 10 16.09344 0.01 0.254
9:53 am 09:53 Cloudy 39 4 N/A N/A Calm 29.94 1014 10 16.09344 0.01 0.254
10:48 am 10:48 Cloudy 41 5 N/A N/A Calm 30 1016 10 16.09344 0 0
10:53 am 10:53 Cloudy 41 5 N/A N/A Calm 29.94 1014 10 16.09344 0 0
11:10 am 11:10 Cloudy 41 5 N/A N/A E 5 7 30 1016 9 14.484096 0 0
11:53 am 11:53 Cloudy 41 5 N/A N/A Calm 29.94 1014 8 12.874752 0 0
12:13 pm 12:13 Cloudy 43 6 N/A N/A NE 5 7 29.94 1014 9 14.484096 0 0
12:23 pm 12:23 Cloudy 42 5.6 42 5.6 100 100 NNE 3 6 29.94 1014 8 12.874752 0 0
12:53 pm 12:53 Cloudy 42 5.6 41 5 96 96 Calm 29.94 1014 10 16.09344 0 0
1:31 pm 13:31 Cloudy 42 5.6 41 5 96 96 undefined N/A 29.94 1014 10 16.09344 0 0
1:53 pm 13:53 Cloudy 42 5.6 41 5 96 96 WNW 6 9 29.94 1014 10 16.09344 0 0
2:53 pm 14:53 Cloudy 44 6.7 41 5 89 89 NNW 6 9 29.91 1013 10 16.09344 0 0
3:15 pm 15:15 Cloudy 44 6.7 41 5 89 89 NNW 5 7 29.94 1014 10 16.09344 0 0
3:38 pm 15:38 Cloudy 45 7 39 4 81 81 Calm 29.94 1014 10 16.09344 0 0
3:53 pm 15:53 Cloudy 44 6.7 40 4.4 85 85 Calm 29.91 1013 10 16.09344 0 0
4:03 pm 16:03 Cloudy 45 7.2 40 4.4 83 83 NNE 3 6 29.91 1013 10 16.09344 0 0
4:53 pm 16:53 Cloudy 44 6.7 40 4.4 85 85 Calm 29.94 1014 10 16.09344 0 0
5:53 pm 17:53 Cloudy 44 6.7 40 4.4 85 85 Calm 29.94 1014 10 16.09344 0 0
6:48 pm 18:48 Cloudy 45 7 41 5 87 87 Calm 29.94 1014 10 16.09344 0 0
6:53 pm 18:53 Cloudy 44 6.7 40 4.4 85 85 Calm 29.94 1014 10 16.09344 0 0
7:53 pm 19:53 Cloudy 42 5.6 41 5 96 96 Calm 29.97 1015 10 16.09344 0 0
8:51 pm 20:51 Cloudy with Light Rain 43 6 43 6 100 100 Calm 30 1016 7 11.265408 0.001 0.001
8:53 pm 20:53 Cloudy with Light Rain 42 5.6 42 5.6 100 100 Calm 30 1016 8 12.874752 0.001 0.001
9:39 pm 21:39 Cloudy with Light Rain 41 5 41 5 100 100 Calm 30.03 1017 6 9.656064 0.02 0.508
9:53 pm 21:53 Cloudy with Light Rain 41 5 41 5 100 100 Calm 30 1016 5 8.04672 0.03 0.762
10:05 pm 22:05 Cloudy with Light Rain 41 5 41 5 100 100 Calm 30.03 1017 5 8.04672 0.001 0.001
10:16 pm 22:16 Cloudy with Light Rain 41 5 41 5 100 100 Calm 30.03 1017 4 6.437376 0 0
10:53 pm 22:53 Cloudy with Light Rain 41 5 41 5 100 100 Calm 30 1016 6 9.656064 0.04 1.016
11:03 pm 23:03 Cloudy with Light Rain 41 5 41 5 100 100 Calm 30.03 1017 6 9.656064 0.001 0.001
11:47 pm 23:47 Cloudy with Light Rain 39 4 39 4 100 100 Calm 30.03 1017 1.75 2.816352 0.02 0.508
11:48 pm 23:48 Cloudy with Light Rain 40 4.4 40 4.4 100 100 Calm 30 1016 1.5 2.414016 0.02 0.508

Powered by AerisWeather